| time (UTC) | temp F | wind direction | speed MPH | gust MPH | rain 1hr in | rain 24hr in | rain mn in | humidity % | barometer mb |
| 20260503220020 | 57 | 249 | 3.0 | 9.0 | 0.00 | 0.00 | 0.00 | 49 | 1012.9 |
| 20260503214519 | 57 | 249 | 3.0 | 12.0 | 0.00 | 0.00 | 0.00 | 50 | 1013.0 |
| 20260503213028 | 57 | 220 | 3.0 | 10.0 | 0.00 | 0.00 | 0.00 | 49 | 1012.8 |
| 20260503211519 | 57 | 241 | 4.0 | 15.0 | 0.00 | 0.00 | 0.00 | 48 | 1012.9 |
| 20260503210018 | 59 | 254 | 3.0 | 12.0 | 0.00 | 0.00 | 0.00 | 43 | 1012.9 |
| 20260503204518 | 59 | 258 | 6.0 | 13.0 | 0.00 | 0.00 | 0.00 | 42 | 1013.1 |
| 20260503203016 | 59 | 289 | 4.0 | 13.0 | 0.00 | 0.00 | 0.00 | 40 | 1013.1 |
| 20260503201525 | 59 | 277 | 7.0 | 13.0 | 0.00 | 0.00 | 0.00 | 38 | 1013.4 |
| 20260503200011 | 60 | 235 | 7.0 | 15.0 | 0.00 | 0.00 | 0.00 | 39 | 1013.6 |
| 20260503194508 | 59 | 264 | 7.0 | 18.0 | 0.00 | 0.00 | 0.00 | 42 | 1013.8 |
| 20260503193007 | 59 | 259 | 7.0 | 14.0 | 0.00 | 0.00 | 0.00 | 43 | 1014.0 |
| 20260503191505 | 58 | 299 | 7.0 | 15.0 | 0.00 | 0.00 | 0.00 | 43 | 1014.0 |
| 20260503190002 | 58 | 243 | 8.0 | 19.0 | 0.00 | 0.00 | 0.00 | 43 | 1014.3 |
| 20260503184502 | 57 | 255 | 9.0 | 15.0 | 0.00 | 0.00 | 0.00 | 45 | 1014.4 |
| 20260503183110 | 58 | 292 | 8.0 | 14.0 | 0.00 | 0.00 | 0.00 | 45 | 1014.6 |
| 20260503181623 | 57 | 359 | 7.0 | 15.0 | 0.00 | 0.00 | 0.00 | 44 | 1014.7 |
| 20260503180131 | 57 | 243 | 7.0 | 13.0 | 0.00 | 0.00 | 0.00 | 44 | 1014.8 |
| 20260503174559 | 57 | 249 | 6.0 | 13.0 | 0.00 | 0.00 | 0.00 | 45 | 1015.0 |
| 20260503173059 | 57 | 285 | 6.0 | 11.0 | 0.00 | 0.00 | 0.00 | 47 | 1015.2 |
| 20260503171554 | 56 | 256 | 5.0 | 11.0 | 0.00 | 0.00 | 0.00 | 50 | 1015.3 |
| 20260503120106 | 40 | 210 | 1.0 | 6.0 | 0.00 | 0.00 | 0.00 | 82 | 1017.3 |
| 20260503081522 | 35 | 206 | 1.0 | 5.0 | 0.00 | 0.00 | 0.00 | 83 | 1017.2 |
| 20260503071525 | 35 | 193 | 0.0 | 5.0 | 0.00 | 0.00 | 0.00 | 83 | 1017.3 |
| 20260503054515 | 35 | 195 | 1.0 | 5.0 | 0.00 | 0.00 | 0.00 | 84 | 1017.6 |
| 20260503053010 | 35 | 210 | 1.0 | 3.0 | 0.00 | 0.00 | 0.00 | 84 | 1017.8 |
| 20260503051507 | 35 | 208 | 0.0 | 2.0 | 0.00 | 0.00 | 0.00 | 83 | 1017.8 |
| 20260503050006 | 35 | 223 | 1.0 | 4.0 | 0.00 | 0.00 | 0.00 | 83 | 1017.9 |
| 20260503044502 | 35 | 359 | 0.0 | 3.0 | 0.00 | 0.00 | 0.00 | 82 | 1017.9 |
| 20260503043001 | 36 | 185 | 0.0 | 3.0 | 0.00 | 0.00 | 0.00 | 82 | 1017.9 |
| 20260503041559 | 36 | 359 | 0.0 | 3.0 | 0.00 | 0.00 | 0.00 | 80 | 1018.1 |
| 20260503040104 | 36 | 200 | 1.0 | 3.0 | 0.00 | 0.00 | 0.00 | 79 | 1018.1 |
| 20260503034558 | 37 | 359 | 0.0 | 4.0 | 0.00 | 0.00 | 0.00 | 78 | 1018.1 |
| 20260503033050 | 37 | 359 | 1.0 | 3.0 | 0.00 | 0.00 | 0.00 | 77 | 1018.1 |
| 20260503031548 | 38 | 193 | 0.0 | 4.0 | 0.00 | 0.00 | 0.00 | 76 | 1018.2 |
| 20260503030050 | 38 | 197 | 1.0 | 5.0 | 0.00 | 0.00 | 0.00 | 75 | 1018.2 |
| 20260503024544 | 39 | 201 | 1.0 | 4.0 | 0.00 | 0.00 | 0.00 | 73 | 1018.3 |
| 20260503023046 | 40 | 359 | 1.0 | 3.0 | 0.00 | 0.00 | 0.00 | 70 | 1018.4 |
| 20260503021542 | 41 | 228 | 0.0 | 1.0 | 0.00 | 0.00 | 0.00 | 68 | 1018.4 |
| 20260503020042 | 41 | 359 | 0.0 | 3.0 | 0.00 | 0.00 | 0.00 | 67 | 1018.3 |
| 20260503014550 | 42 | 359 | 0.0 | 2.0 | 0.00 | 0.00 | 0.00 | 67 | 1018.3 |
| 20260503013042 | 42 | 359 | 0.0 | 3.0 | 0.00 | 0.00 | 0.00 | 67 | 1018.2 |
| 20260503011543 | 42 | 359 | 1.0 | 7.0 | 0.00 | 0.00 | 0.00 | 67 | 1018.2 |
| 20260503010040 | 42 | 359 | 1.0 | 4.0 | 0.00 | 0.00 | 0.00 | 68 | 1018.2 |
| 20260503004543 | 42 | 359 | 1.0 | 4.0 | 0.00 | 0.00 | 0.00 | 67 | 1018.2 |
| 20260503003047 | 42 | 359 | 0.0 | 3.0 | 0.00 | 0.00 | 0.00 | 67 | 1018.2 |
| 20260503001547 | 42 | 256 | 1.0 | 6.0 | 0.00 | 0.00 | 0.00 | 65 | 1018.1 |
| 20260503000046 | 42 | 265 | 2.0 | 5.0 | 0.00 | 0.00 | 0.00 | 65 | 1018.1 |
| 20260502234551 | 42 | 260 | 1.0 | 5.0 | 0.00 | 0.00 | 0.00 | 65 | 1018.1 |
| 20260502233038 | 43 | 253 | 2.0 | 8.0 | 0.00 | 0.00 | 0.00 | 65 | 1018.1 |
| 20260502231537 | 43 | 359 | 3.0 | 8.0 | 0.00 | 0.00 | 0.00 | 64 | 1018.1 |
| 20260502230036 | 43 | 359 | 1.0 | 9.0 | 0.00 | 0.00 | 0.00 | 65 | 1018.1 |
| 20260502224536 | 43 | 253 | 2.0 | 8.0 | 0.00 | 0.00 | 0.00 | 64 | 1018.0 |
| 20260502223042 | 43 | 359 | 2.0 | 8.0 | 0.00 | 0.00 | 0.00 | 65 | 1018.0 |
| 20260502221535 | 43 | 359 | 2.0 | 9.0 | 0.00 | 0.00 | 0.00 | 65 | 1018.0 |